This is the latest recevied weather packets stored in our database for station/object W5ALL-WX. If no packets are shown the sender has not sent any weather packets the latest 10 day(s).
| Time | Temp. | Humidity | Pressure | Rain* | Wind** | Luminosity | Snow |
|---|---|---|---|---|---|---|---|
| 1777899801 | 19.44° C | 38% | 1014.5 hPa | 0 mm | - | - | - |
| 1777899501 | 19.44° C | 38% | 1014.3 hPa | 0 mm | - | - | - |
| 1777899202 | 18.89° C | 40% | 1014.2 hPa | 0 mm | - | - | - |
| 1777898901 | 18.89° C | 43% | 1014 hPa | 0 mm | - | - | - |
| 1777898601 | 17.78° C | 43% | 1013.9 hPa | 0 mm | - | - | - |
| 1777898301 | 16.67° C | 52% | 1013.8 hPa | 0 mm | - | - | - |
| 1777898001 | 16.67° C | 55% | 1013.9 hPa | 0 mm | - | - | - |
| 1777897701 | 16.67° C | 55% | 1013.8 hPa | 0 mm | - | - | - |
| 1777897401 | 16.67° C | 55% | 1013.9 hPa | 0 mm | - | - | - |
| 1777897102 | 16.67° C | 55% | 1013.9 hPa | 0 mm | - | - | - |
| 1777896801 | 16.11° C | 55% | 1013.8 hPa | 0 mm | - | - | - |
| 1777896501 | 14.44° C | 60% | 1013.4 hPa | 0 mm | - | - | - |
| 1777896201 | 13.89° C | 69% | 1013.2 hPa | 0 mm | - | - | - |
| 1777895901 | 13.89° C | 70% | 1012.9 hPa | 0 mm | - | - | - |
| 1777895601 | 13.33° C | 72% | 1012.7 hPa | 0 mm | - | - | - |
| 1777895301 | 13.33° C | 72% | 1012.7 hPa | 0 mm | - | - | - |
| 1777895001 | 13.33° C | 71% | 1012.7 hPa | 0 mm | - | - | - |
| 1777894701 | 13.33° C | 70% | 1012.5 hPa | 0 mm | - | - | - |
| 1777894401 | 13.89° C | 69% | 1012.6 hPa | 0 mm | - | - | - |
| 1777894101 | 14.44° C | 67% | 1012.6 hPa | 0 mm | - | - | - |
| 1777893801 | 14.44° C | 66% | 1012.7 hPa | 0 mm | - | - | - |
| 1777893501 | 14.44° C | 68% | 1012.8 hPa | 0 mm | - | - | - |
| 1777893201 | 13.89° C | 68% | 1012.8 hPa | 0 mm | - | - | - |
| 1777892901 | 14.44° C | 67% | 1013.1 hPa | 0 mm | - | - | - |
| 1777892601 | 14.44° C | 67% | 1013.1 hPa | 0 mm | - | - | - |
* Rain latest hour (hover to see other rain measurements)
** Current wind speed in m/s (hover to see current wind gust speed)